SCP
0 0 0 0 0 0 0 0 0 0 0 0 0 0 0 0 0 0 0 0 0 0 0 0 0 0 0 0 0 0 0 0 0 0 0 0 0 0 0 0 0 0 0 0
0 0 0 0 0 0 0 0 0 0 0 0 0 0 0 0 0 0 0 0 0 0 0 0 0 0 0 0 0 0 0 0 0 0 0 0 0 0 0 0 0 0 0 0
0 0 0 0 0 0 0 0 0 0 0 0 0 0 0 0 0 0 0 0 0 0 0 0 0 0 0 0 0 0 0 0 0 0 0 0 0 0 0 0 0 0 0 0
0 0 0 0 0 0 0 0 0 0 0 0 0 0 0 0 0 0 0 0 0 0 0 0 0 0 0 0 0 0 0 0 0 0 0 0 0 0 0 0 0 0 0 0
0 0 0 0 0 0 0 0 0 0 0 0 0 0 0 0 0 0 0 0 0 0 0 0 0 0 0 0 0 0 0 0 0 0 0 0 0 0 0 0 0 0 0 0
0 0 0 0 0 0 0 0 0 0 0 0 0 0 0 0 0 0 0 0 0 0 0 0 0 0 0 0 0 0 0 0 0 0 0 0 0 0 0 0 0 0 0 0
0 0 0 0 0 0 0 0 0 0 0 0 0 0 0 0 0 0 0 0 0 0 0 0 0 0 0 0 0 0 0 0 0 0 0 0 0 0 0 0 0 0 0 0
0 0 0 0 0 0 0 0 0 0 0 0 0 0 0 0 0 0 0 0 0 0 0 0 0 0 0 0 0 0 0 0 0 0 0 0 0 0 0 0 0 0 0 0
0 0 0 0 0 0 0 0 0 0 0 0 0 0 0 0 0 0 0 0 0 0 0 0 0 0 0 0 0 0 0 0 0 0 0 0 0 0 0 0 0 0 0 0
0 0 0 0 0 0 0 0 0 0 0 0 0 0 0 0 0 0 0 0 0 0 0 0 0 0 0 0 0 0 0 0 0 0 0 0 0 0 0 0 0 0 0 0
0 0 0 0 0 0 0 0 0 0 0 0 0 0 0 0 0 0 0 0 0 0 0 0 0 0 0 0 0 0 0 0 0 0 0 0 0 0 0 0 0 0 0 0
0 0 0 0 0 0 0 0 0 0 0 0 0 0 0 0 0 0 0 0 0 0 0 0 0 0 0 0 0 0 0 0 0 0 0 0 0 0 0 0 0 0 0 0
0 0 0 0 0 0 0 0 0 0 0 0 0 0 0 0 0 0 0 0 0 0 0 0 0 0 0 0 0 0 0 0 0 0 0 0 0 0 0 0 0 0 0 0
0 0 0 0 0 0 0 0 0 0 0 0 0 0 0 0 0 0 0 0 0 0 0 0 0 0 0 0 0 0 0 0 0 0 0 0 0 0 0 0 0 0 0 0
0 0 0 0 0 0 0 0 0 0 0 0 0 0 0 0 0 0 0 0 0 0 0 0 0 0 0 0 0 0 0 0 0 0 0 0 0 0 0 0 0 0 0 0
0 0 0 0 0 0 0 0 0 0 0 0 0 0 0 0 0 0 0 0 0 0 0 0 0 0 0 0 0 0 0 0 0 0 0 0 0 0 0 0 0 0 0 0
0 0 0 0 0 0 0 0 0 0 0 0 0 0 0 0 0 0 0 0 0 0 0 0 0 0 0 0 0 0 0 0 0 0 0 0 0 0 0 0 0 0 0 0
0 0 0 0 0 0 0 0 0 0 0 0 0 0 0 0 0 0 0 0 0 0 0 0 0 0 0 0 0 0 0 0 0 0 0 0 0 0 0 0 0 0 0 0
0 0 0 0 0 0 0 0 0 0 0 0 0 0 0 0 0 0 0 0 0 0 0 0 0 0 0 0 0 0 0 0 0 0 0 0 0 0 0 0 0 0 0 0
0 0 0 0 0 0 0 0 0 0 0 0 0 0 0 0 0 0 0 0 0 0 0 0 0 0 0 0 0 0 0 0 0 0 0 0 0 0 0 0 0 0 0 0
0 0 0 0 0 0 0 0 0 0 0 0 0 0 0 0 0 0 0 0 0 0 0 0 0 0 0 0 0 0 0 0 0 0 0 0 0 0 0 0 0 0 0 0
0 0 0 0 0 0 0 0 0 0 0 0 0 0 0 0 0 0 0 0 0 0 0 0 0 0 0 0 0 0 0 0 0 0 0 0 0 0 0 0 0 0 0 0
0 0 0 0 0 0 0 0 0 0 0 0 0 0 0 0 0 0 0 0 0 0 0 0 0 0 0 0 0 0 0 0 0 0 0 0 0 0 0 0 0 0 0 0
0 0 0 0 0 0 0 0 0 0 0 0 0 0 0 0 0 0 0 0 0 0 0 0 0 0 0 0 0 0 0 0 0 0 0 0 0 0 0 0 0 0 0 0
0 0 0 0 0 0 0 0 0 0 0 0 0 0 0 0 0 0 0 0 0 0 0 0 0 0 0 0 0 0 0 0 0 0 0 0 0 0 0 0 0 0 0 0
0 0 0 0 0 0 0 0 0 0 0 0 0 0 0 0 0 0 0 0 0 0 0 0 0 0 0 0 0 0 0 0 0 0 0 0 0 0 0 0 0 0 0 0
Wind_Speed
5 6 6 6 5 6 7 5 4 1 4 2 3 3 4 5 4 3 3 3 3 3 5 4 4 4 4 3 2 2 3 3 3 2 2 2 1 1 2 2 2 2 3 4
6 7 5 4 4 6 7 7 5 3 3 2 4 4 3 5 5 3 3 3 3 3 4 4 4 4 3 3 1 2 3 3 3 2 2 2 2 2 2 2 2 1 2 3
7 1 1 4 5 7 7 6 5 4 2 4 5 5 5 6 5 4 2 2 3 3 4 4 4 4 3 2 1 2 2 3 3 3 1 1 2 2 2 2 1 1 2 3
5 3 3 5 6 7 6 4 5 5 5 5 6 4 4 7 6 5 4 3 3 4 4 4 4 4 3 2 1 2 2 2 3 2 2 2 2 2 2 2 2 2 2 3
4 3 4 5 4 5 5 4 6 8 7 8 8 5 3 7 7 6 5 4 3 4 4 5 4 4 3 3 1 1 2 2 3 3 2 2 2 1 2 2 3 3 2 2
4 3 3 4 4 4 5 5 7 8 6 7 9 6 2 4 5 6 6 5 4 3 4 5 4 4 3 3 2 1 2 2 2 2 2 2 2 2 2 2 3 2 2 2
8 7 4 3 6 5 5 5 4 5 6 5 4 3 3 7 7 6 6 5 5 4 4 4 4 3 4 3 2 1 2 2 2 1 1 2 3 3 3 4 3 3 2 2
7 6 6 4 4 4 6 7 5 4 3 1 2 2 6 9 7 6 6 5 5 5 4 4 4 3 3 3 3 2 2 2 2 1 1 2 2 2 2 3 3 4 3 3
5 1 5 4 4 5 6 6 7 7 9 5 3 5 7 7 7 5 5 5 4 4 4 4 3 3 3 3 3 2 2 2 2 2 2 2 1 2 2 3 2 3 3 4
7 5 3 5 5 6 6 6 5 4 4 5 4 3 5 8 6 5 5 4 4 3 3 3 3 2 2 2 2 2 2 2 2 1 1 1 1 1 1 2 3 3 3 4
7 7 4 5 6 5 6 6 5 4 5 4 3 2 6 7 6 5 4 4 3 3 2 2 2 2 2 2 2 2 2 1 1 2 1 1 1 1 1 1 1 2 3 4
4 6 6 5 3 4 5 5 5 4 5 5 3 2 6 6 6 4 4 3 2 3 2 2 2 2 1 1 1 2 2 1 1 2 2 1 1 2 2 2 2 2 2 3
6 6 5 4 4 6 6 5 6 6 5 5 4 2 5 5 4 3 3 2 2 2 2 1 1 1 1 1 1 1 2 2 2 2 2 2 2 2 2 2 2 2 2 2
5 7 7 6 3 3 5 6 6 7 6 6 5 3 2 2 2 1 1 1 1 1 1 0 1 1 1 1 1 1 2 3 3 2 3 3 3 2 2 2 2 2 2 2
5 8 8 8 9 8 8 8 8 9 9 8 7 5 4 2 2 2 1 1 1 1 1 0 1 1 1 2 2 2 2 3 3 3 3 3 3 2 2 2 2 2 2 2
5 7 8 10 9 11 12 11 10 11 10 9 8 6 3 3 3 3 3 2 2 2 1 1 2 2 2 2 2 2 2 2 3 3 3 3 3 2 3 3 3 2 2 2
5 7 7 8 7 10 11 8 8 8 7 8 8 3 2 3 3 3 3 2 2 3 2 2 3 3 3 3 3 3 3 3 3 4 4 3 3 3 3 3 2 2 2 2
7 7 4 6 8 10 2 1 2 4 3 3 3 2 3 3 3 2 2 2 3 3 3 3 3 3 4 4 3 4 3 3 3 4 4 4 4 3 2 2 3 3 2 2
7 6 5 5 7 7 3 2 3 4 4 2 2 2 3 3 3 1 4 4 4 3 3 3 3 4 4 4 3 4 4 3 4 4 4 4 4 4 3 3 3 3 3 3
7 7 6 6 7 6 1 1 2 4 4 1 1 2 2 3 3 2 4 5 5 4 4 4 4 4 3 3 3 4 4 4 4 4 4 4 4 4 4 4 3 2 3 3
7 8 9 9 8 4 1 1 2 3 1 2 2 2 3 3 3 3 5 4 5 5 5 5 4 4 3 3 3 4 4 4 3 3 3 3 4 4 4 4 3 3 3 3
4 4 6 6 7 4 1 1 1 1 3 3 3 3 3 4 5 4 4 4 4 5 5 5 4 4 3 3 3 4 5 4 2 2 2 3 3 4 3 3 3 3 3 4
4 4 2 2 2 1 1 1 2 3 3 4 4 4 4 4 4 5 4 4 5 5 5 5 4 4 4 3 4 5 5 3 2 1 2 3 3 3 4 4 4 3 3 3
4 4 5 5 3 3 3 3 3 4 4 4 4 4 5 5 5 5 5 5 5 5 5 5 5 5 5 4 4 5 4 3 2 2 2 3 3 3 3 3 3 3 4 4
5 4 5 6 4 3 3 3 4 5 5 5 5 5 5 5 5 5 5 5 5 5 5 5 5 5 5 5 5 4 4 4 3 3 3 3 3 3 3 3 3 4 4 5
5 5 5 4 4 4 4 4 5 5 5 5 5 6 5 5 6 6 5 5 5 5 5 5 6 6 6 6 6 5 4 4 3 3 3 2 2 2 3 3 2 3 4 5
Wind_Direction
211 229 233 234 242 277 289 281 274 188 141 173 222 235 187 167 175 182 176 164 154 142 130 121 117 114 95 92 96 110 106 109 113 116 121 127 124 108 97 78 84 99 102 107
217 229 245 271 281 271 269 265 262 233 170 211 244 250 210 171 176 179 186 159 143 129 115 114 108 103 94 94 108 126 118 117 120 130 145 149 142 134 119 105 90 108 113 113
234 232 222 248 257 261 260 264 272 270 245 231 239 248 216 173 163 163 177 154 142 137 127 124 125 112 111 98 91 97 108 106 112 126 113 121 104 99 101 119 123 138 115 116
240 246 241 246 254 266 267 281 273 269 265 255 230 253 194 162 162 167 163 146 136 131 123 123 114 112 117 117 114 99 101 108 111 121 124 129 128 143 160 157 151 146 125 120
242 229 247 252 269 284 286 303 273 260 260 267 250 248 201 158 166 163 150 147 141 131 127 125 123 123 124 112 102 101 95 99 113 122 134 132 135 162 164 154 148 146 144 137
257 260 274 284 280 279 291 272 259 251 255 256 245 234 173 152 148 141 136 139 131 119 120 119 123 126 119 114 100 92 102 101 112 134 152 155 169 181 153 150 151 152 153 153
219 220 221 254 261 231 247 257 248 218 214 235 213 191 107 100 94 106 123 129 123 109 107 107 110 124 125 124 125 124 120 121 122 158 168 182 182 188 171 167 170 165 167 167
230 207 199 211 255 273 254 254 267 286 278 275 181 157 113 110 101 104 115 118 115 111 112 109 108 108 125 133 142 151 135 147 162 188 199 202 188 182 168 170 171 177 180 174
301 185 161 185 236 264 265 261 271 282 289 279 227 129 127 125 116 104 103 107 116 120 117 111 111 114 118 139 159 166 165 173 181 202 202 204 203 196 182 180 186 177 181 172
297 292 203 178 212 227 260 286 287 271 284 275 250 204 157 143 134 118 105 105 111 111 118 119 118 116 119 136 165 173 184 187 186 204 223 204 187 206 201 193 190 184 189 177
291 277 238 208 213 230 231 246 259 270 265 276 285 55 92 123 116 114 111 101 105 111 113 123 123 128 131 133 152 171 191 187 190 202 220 234 194 207 191 181 173 192 189 180
293 282 263 233 216 227 243 258 268 268 279 286 288 94 99 97 95 96 98 104 109 116 119 125 133 141 140 147 175 188 189 175 210 214 197 213 210 205 200 196 190 203 197 187
326 278 264 215 214 217 228 234 256 268 273 270 267 150 111 105 91 86 83 85 100 115 125 132 126 162 171 188 188 197 201 182 198 214 204 207 219 219 208 216 200 197 204 194
291 268 265 267 301 269 249 250 253 257 257 263 260 227 164 115 84 48 45 47 63 85 114 139 168 193 207 216 220 213 211 197 204 205 210 208 209 217 218 228 217 203 209 198
272 267 269 274 285 282 266 257 252 254 258 264 273 271 282 329 340 334 349 34 8 344 337 326 289 259 247 238 236 225 208 203 204 204 216 217 207 198 207 218 227 212 204 187
258 275 276 267 262 267 266 255 247 247 254 260 269 269 296 319 318 325 329 345 333 318 326 337 305 294 280 272 261 261 222 211 205 206 219 211 207 199 203 216 215 204 208 185
253 263 279 270 257 266 254 248 242 241 242 253 262 278 322 310 323 331 338 351 339 334 350 337 315 299 287 275 270 260 252 225 211 215 220 206 202 208 211 212 208 198 196 179
266 273 272 272 265 249 224 353 257 253 263 283 296 313 313 331 334 359 24 26 360 352 350 331 308 293 290 279 273 267 246 235 222 218 216 208 198 194 198 205 202 202 195 176
242 252 262 259 262 259 234 251 260 264 263 282 291 318 340 354 320 30 34 15 4 2 343 325 310 297 295 291 281 279 262 243 234 228 213 203 194 188 193 208 213 209 191 179
219 233 245 255 258 260 187 71 309 273 245 0 315 320 328 331 304 342 15 4 354 351 339 327 318 309 302 296 287 276 266 255 243 234 221 205 191 188 198 208 219 209 190 187
208 220 227 244 252 259 297 327 297 255 300 31 6 353 342 328 330 344 351 353 350 343 334 329 326 318 307 304 296 289 281 270 262 237 217 208 190 192 201 207 212 201 191 187
235 232 229 236 244 239 78 337 273 357 15 5 355 352 350 341 336 338 343 345 339 333 329 327 328 325 324 317 303 292 284 276 277 257 211 201 193 198 199 192 208 200 183 186
238 252 267 250 257 22 19 344 13 10 348 348 352 356 346 325 323 328 330 330 329 326 326 326 323 318 322 325 314 298 292 293 287 272 214 203 205 203 185 187 201 197 185 189
254 269 263 263 254 296 326 344 354 347 337 341 343 335 328 322 322 322 320 319 317 317 320 320 318 315 315 316 310 310 308 301 281 265 237 215 205 198 192 193 192 191 190 193
293 285 268 265 274 291 296 307 321 325 326 328 328 323 321 320 317 316 314 315 315 315 314 314 311 302 304 311 312 315 316 307 277 259 245 230 219 199 198 198 199 194 196 194
261 268 266 271 292 286 289 310 313 309 311 316 317 316 316 311 308 310 309 312 314 312 311 311 309 311 311 311 309 308 304 297 285 276 254 230 220 206 200 193 194 200 192 190